FW2156 Weather Reports


Display with metric or nautical units.
time (UTC)temp
F
wind
direction
speed
MPH
gust
MPH
rain 1hr
in
rain 24hr
in
rain mn
in
humidity
%
barometer
mb
20260902042142 66 148 0.0 0.0 0.00 0.00 0.00 66 1006.1
20260902041643 66 148 0.0 0.0 0.00 0.00 0.00 65 1005.8
20260902041140 67 148 0.0 0.0 0.00 0.00 0.00 64 1005.8
20260902040641 67 146 0.0 0.0 0.00 0.00 0.00 63 1005.8
20260902040140 67 146 0.0 0.0 0.00 0.00 0.00 62 1005.8
20260902035640 68 146 0.0 0.0 0.00 0.00 0.00 61 1006.1
20260902035140 68 146 0.0 0.0 0.00 0.00 0.00 61 1005.8
20260902034639 68 146 0.0 0.0 0.00 0.00 0.00 60 1006.1
20260902034139 68 146 0.0 0.0 0.00 0.00 0.00 60 1006.1
20260902033638 69 142 0.0 0.0 0.00 0.00 0.00 60 1006.1
20260902033139 69 142 0.0 0.0 0.00 0.00 0.00 59 1005.8
20260902032639 69 142 0.0 0.0 0.00 0.00 0.00 58 1006.1
20260902032138 69 141 0.0 0.0 0.00 0.00 0.00 57 1005.8
20260902031636 69 141 0.0 0.0 0.00 0.00 0.00 57 1006.1
20260902031138 70 141 0.0 0.0 0.00 0.00 0.00 56 1005.8
20260902030637 70 138 0.0 0.0 0.00 0.00 0.00 56 1006.1
20260902030138 70 138 0.0 0.0 0.00 0.00 0.00 55 1006.1
20260902025637 70 146 0.0 0.0 0.00 0.00 0.00 55 1006.1
20260902025136 71 99 0.0 0.0 0.00 0.00 0.00 54 1005.8
20260902024635 71 18 1.0 1.0 0.00 0.00 0.00 53 1005.8
20260902024137 71 152 0.0 0.0 0.00 0.00 0.00 53 1005.8
20260902023634 72 142 0.0 0.0 0.00 0.00 0.00 53 1006.1
20260902023136 72 143 0.0 0.0 0.00 0.00 0.00 52 1005.8
20260902022635 72 142 0.0 0.0 0.00 0.00 0.00 52 1005.8
20260902022135 73 145 0.0 0.0 0.00 0.00 0.00 51 1006.1
20260902021634 73 170 0.0 0.0 0.00 0.00 0.00 51 1005.8
20260902021135 74 153 0.0 0.0 0.00 0.00 0.00 50 1005.8
20260902020634 74 161 0.0 0.0 0.00 0.00 0.00 49 1006.1
20260902020135 75 177 0.0 0.0 0.00 0.00 0.00 48 1006.1
20260902015632 75 165 0.0 0.0 0.00 0.00 0.00 48 1006.1
20260902015133 75 148 0.0 0.0 0.00 0.00 0.00 47 1005.8
20260902014633 75 132 1.0 2.0 0.00 0.00 0.00 46 1006.1
20260902014133 76 154 0.0 0.0 0.00 0.00 0.00 47 1006.1
20260902013631 76 145 0.0 0.0 0.00 0.00 0.00 46 1005.8
20260902013131 76 137 0.0 1.0 0.00 0.00 0.00 46 1005.8
20260902012631 76 139 0.0 1.0 0.00 0.00 0.00 45 1006.1
20260902012131 76 106 0.0 1.0 0.00 0.00 0.00 45 1006.1
20260902011632 76 147 0.0 0.0 0.00 0.00 0.00 45 1005.8
20260902011129 76 122 1.0 1.0 0.00 0.00 0.00 45 1005.8
20260902010632 77 133 0.0 0.0 0.00 0.00 0.00 45 1006.1
20260902010130 77 84 0.0 0.0 0.00 0.00 0.00 44 1006.1
20260902005628 77 114 1.0 1.0 0.00 0.00 0.00 45 1006.1
20260902005129 77 70 3.0 3.0 0.00 0.00 0.00 45 1005.8
20260902004629 77 168 1.0 1.0 0.00 0.00 0.00 45 1006.1
20260902004129 77 233 0.0 1.0 0.00 0.00 0.00 44 1005.8
20260902003627 77 88 1.0 2.0 0.00 0.00 0.00 43 1006.1
20260902003129 78 36 1.0 2.0 0.00 0.00 0.00 43 1006.1
20260902002627 78 117 1.0 1.0 0.00 0.00 0.00 43 1006.1
20260902002127 78 79 1.0 2.0 0.00 0.00 0.00 43 1006.1
20260902001628 78 175 0.0 1.0 0.00 0.00 0.00 42 1006.1
20260902001126 79 107 2.0 2.0 0.00 0.00 0.00 42 1006.1
20260902000627 79 228 3.0 6.0 0.00 0.00 0.00 43 1006.1
20260902000151 79 59 2.0 3.0 0.00 0.00 0.00 42 1006.1
20260901235634 79 212 0.0 0.0 0.00 0.00 0.00 42 1006.1
20260901235158 79 197 1.0 1.0 0.00 0.00 0.00 42 1006.1
20260901234625 79 138 1.0 2.0 0.00 0.00 0.00 43 1006.4
20260901234124 79 95 1.0 2.0 0.00 0.00 0.00 43 1006.4
20260901233631 79 215 1.0 1.0 0.00 0.00 0.00 42 1006.1
20260901233129 78 161 1.0 2.0 0.00 0.00 0.00 43 1006.1
20260901232626 78 69 1.0 1.0 0.00 0.00 0.00 42 1006.1
20260901232123 78 223 0.0 0.0 0.00 0.00 0.00 43 1006.1
20260901231628 78 26 0.0 1.0 0.00 0.00 0.00 42 1006.4
20260901231132 77 239 0.0 0.0 0.00 0.00 0.00 43 1006.4
20260901230628 77 104 0.0 1.0 0.00 0.00 0.00 43 1006.1
20260901230122 77 95 0.0 1.0 0.00 0.00 0.00 43 1006.4
20260901225628 78 153 2.0 3.0 0.00 0.00 0.00 43 1006.4
20260901225128 78 156 1.0 1.0 0.00 0.00 0.00 43 1006.4
20260901224618 78 217 0.0 0.0 0.00 0.00 0.00 43 1006.4
20260901224121 79 129 1.0 1.0 0.00 0.00 0.00 41 1006.4
20260901223621 78 217 0.0 0.0 0.00 0.00 0.00 41 1006.4
20260901223132 78 70 1.0 1.0 0.00 0.00 0.00 40 1006.4
20260901222617 78 342 1.0 2.0 0.00 0.00 0.00 40 1006.8
20260901222117 77 152 0.0 1.0 0.00 0.00 0.00 40 1006.4
20260901221617 77 158 1.0 1.0 0.00 0.00 0.00 41 1006.4
20260901221116 77 270 1.0 1.0 0.00 0.00 0.00 41 1006.8
20260901220616 77 143 1.0 2.0 0.00 0.00 0.00 42 1006.8
20260901220117 77 156 1.0 2.0 0.00 0.00 0.00 42 1006.8
20260901215617 77 104 2.0 2.0 0.00 0.00 0.00 42 1006.8
20260901215117 78 150 1.0 2.0 0.00 0.00 0.00 42 1006.8
20260901214615 78 195 2.0 3.0 0.00 0.00 0.00 42 1006.8
20260901214116 78 309 1.0 2.0 0.00 0.00 0.00 43 1006.8
20260901213614 78 200 1.0 2.0 0.00 0.00 0.00 44 1007.1
20260901213114 79 324 0.0 1.0 0.00 0.00 0.00 44 1007.1
20260901212615 79 219 1.0 1.0 0.00 0.00 0.00 43 1007.1
20260901212115 79 122 1.0 2.0 0.00 0.00 0.00 45 1007.1
20260901211613 79 158 2.0 3.0 0.00 0.00 0.00 45 1007.1
20260901211114 78 281 0.0 1.0 0.00 0.00 0.00 44 1007.1
20260901210613 78 95 1.0 2.0 0.00 0.00 0.00 45 1007.1
20260901210113 78 209 0.0 1.0 0.00 0.00 0.00 44 1007.1
20260901205612 77 278 0.0 1.0 0.00 0.00 0.00 43 1007.5
20260901205112 77 70 2.0 3.0 0.00 0.00 0.00 44 1007.5
20260901204612 77 110 2.0 2.0 0.00 0.00 0.00 45 1007.5
20260901204112 77 25 1.0 2.0 0.00 0.00 0.00 47 1007.5
20260901203613 77 117 2.0 2.0 0.00 0.00 0.00 45 1007.5
20260901203115 77 106 1.0 1.0 0.00 0.00 0.00 46 1007.5
20260901202612 77 207 0.0 0.0 0.00 0.00 0.00 45 1007.5
20260901202114 77 0 0.0 0.0 0.00 0.00 0.00 45 1007.8
20260901201610 77 118 2.0 2.0 0.00 0.00 0.00 45 1007.8
20260901201111 76 260 1.0 1.0 0.00 0.00 0.00 45 1007.5
20260901200613 76 223 0.0 1.0 0.00 0.00 0.00 46 1007.8
20260901200120 75 218 1.0 1.0 0.00 0.00 0.00 45 1007.8
20260901195622 75 212 3.0 5.0 0.00 0.00 0.00 46 1007.8
20260901195109 74 187 0.0 0.0 0.00 0.00 0.00 48 1007.8
20260901194613 74 152 0.0 1.0 0.00 0.00 0.00 48 1007.8
20260901194112 74 129 0.0 1.0 0.00 0.00 0.00 49 1007.8
20260901193611 73 152 1.0 1.0 0.00 0.00 0.00 49 1007.8
20260901193109 73 174 1.0 1.0 0.00 0.00 0.00 49 1007.8
20260901192612 73 180 0.0 1.0 0.00 0.00 0.00 50 1007.8
20260901192112 73 122 2.0 2.0 0.00 0.00 0.00 52 1008.1
20260901191612 73 128 1.0 2.0 0.00 0.00 0.00 52 1008.1
20260901191112 73 165 1.0 2.0 0.00 0.00 0.00 51 1008.1
20260901190615 72 84 2.0 3.0 0.00 0.00 0.00 51 1008.1
20260901190112 72 111 3.0 3.0 0.00 0.00 0.00 52 1008.1
20260901185609 72 97 3.0 3.0 0.00 0.00 0.00 53 1008.5
20260901185113 72 218 1.0 1.0 0.00 0.00 0.00 53 1008.5
20260901184611 72 220 1.0 1.0 0.00 0.00 0.00 53 1008.5
20260901184112 72 236 2.0 2.0 0.00 0.00 0.00 53 1008.5
20260901183612 72 114 0.0 1.0 0.00 0.00 0.00 53 1008.5
20260901183111 72 244 0.0 1.0 0.00 0.00 0.00 51 1008.5
20260901182613 71 180 0.0 1.0 0.00 0.00 0.00 54 1008.5
20260901182112 71 99 1.0 2.0 0.00 0.00 0.00 55 1008.5
20260901181612 71 194 0.0 1.0 0.00 0.00 0.00 55 1008.5
20260901181113 71 228 0.0 0.0 0.00 0.00 0.00 54 1008.5
20260901180613 70 116 1.0 1.0 0.00 0.00 0.00 52 1008.5
20260901180111 70 230 0.0 0.0 0.00 0.00 0.00 52 1008.5
20260901175610 70 243 0.0 1.0 0.00 0.00 0.00 52 1008.8
20260901175110 69 103 0.0 1.0 0.00 0.00 0.00 53 1008.8
20260901174610 69 244 0.0 1.0 0.00 0.00 0.00 54 1008.8
20260901174112 68 245 1.0 2.0 0.00 0.00 0.00 55 1008.8
20260901173611 68 226 0.0 0.0 0.00 0.00 0.00 55 1008.8
20260901173110 67 293 1.0 1.0 0.00 0.00 0.00 55 1008.8
20260901172614 66 168 0.0 0.0 0.00 0.00 0.00 57 1008.8
20260901172112 66 241 0.0 0.0 0.00 0.00 0.00 59 1008.8
20260901171614 66 250 0.0 1.0 0.00 0.00 0.00 60 1008.8
20260901171110 66 217 0.0 0.0 0.00 0.00 0.00 61 1009.1
20260901170613 66 117 1.0 2.0 0.00 0.00 0.00 63 1008.8
20260901170112 66 115 1.0 3.0 0.00 0.00 0.00 63 1009.1
20260901165603 66 148 0.0 0.0 0.00 0.00 0.00 63 1009.1
20260901165101 65 233 0.0 1.0 0.00 0.00 0.00 63 1008.8
20260901164602 65 159 0.0 1.0 0.00 0.00 0.00 63 1009.1
20260901164101 64 164 0.0 0.0 0.00 0.00 0.00 63 1009.1
20260901163602 64 93 1.0 1.0 0.00 0.00 0.00 62 1008.8
20260901163114 63 197 0.0 0.0 0.00 0.00 0.00 63 1009.1
20260901162610 62 153 0.0 0.0 0.00 0.00 0.00 63 1008.8
20260901162102 61 190 0.0 0.0 0.00 0.00 0.00 65 1008.8
20260901161559 61 179 0.0 0.0 0.00 0.00 0.00 66 1009.1
20260901161101 60 177 0.0 0.0 0.00 0.00 0.00 67 1008.8
20260901160601 60 325 0.0 0.0 0.00 0.00 0.00 68 1008.8
20260901160059 60 199 0.0 0.0 0.00 0.00 0.00 68 1008.8
20260901155601 60 259 2.0 2.0 0.00 0.00 0.00 69 1008.8
20260901155059 60 327 3.0 3.0 0.00 0.00 0.00 69 1008.8
20260901154600 60 233 0.0 1.0 0.00 0.00 0.00 70 1009.1
20260901154058 60 273 2.0 3.0 0.00 0.00 0.00 69 1008.8
20260901153559 60 219 1.0 1.0 0.00 0.00 0.00 68 1008.8
20260901153059 59 221 1.0 1.0 0.00 0.00 0.00 69 1008.8
20260901152559 59 186 0.0 0.0 0.00 0.00 0.00 70 1009.1
20260901152057 58 234 0.0 0.0 0.00 0.00 0.00 69 1009.1
20260901151557 57 134 0.0 1.0 0.00 0.00 0.00 70 1009.1
20260901151056 57 174 0.0 1.0 0.00 0.00 0.00 70 1009.1
20260901150558 56 233 0.0 1.0 0.00 0.00 0.00 72 1009.1
20260901150058 55 85 0.0 1.0 0.00 0.00 0.00 72 1009.1
20260901145557 55 187 0.0 1.0 0.00 0.00 0.00 74 1009.1
20260901145057 54 226 0.0 0.0 0.00 0.00 0.00 76 1009.1
20260901144555 54 251 1.0 1.0 0.00 0.00 0.00 77 1009.1
20260901144056 53 102 0.0 0.0 0.00 0.00 0.00 78 1009.1
20260901143556 53 209 0.0 0.0 0.00 0.00 0.00 78 1009.1
20260901143055 52 183 0.0 0.0 0.00 0.00 0.00 76 1009.1
20260901142556 51 182 0.0 0.0 0.00 0.00 0.00 76 1009.1
20260901142057 50 193 0.0 0.0 0.00 0.00 0.00 80 1009.1
20260901141556 50 188 0.0 0.0 0.00 0.00 0.00 81 1009.1
20260901141055 49 227 0.0 0.0 0.00 0.00 0.00 83 1009.1
20260901140555 49 259 0.0 1.0 0.00 0.00 0.00 85 1009.1
20260901140055 49 251 1.0 1.0 0.00 0.00 0.00 86 1009.1
20260901135554 49 254 1.0 2.0 0.00 0.00 0.00 86 1009.1
20260901135053 49 229 1.0 1.0 0.00 0.00 0.00 86 1009.1
20260901134552 48 273 1.0 2.0 0.00 0.00 0.00 86 1009.1
20260901134054 48 272 2.0 3.0 0.00 0.00 0.00 86 1009.1
20260901133555 48 258 0.0 0.0 0.00 0.00 0.00 86 1009.1
20260901133056 48 255 1.0 2.0 0.00 0.00 0.00 87 1009.1
20260901132554 48 217 0.0 1.0 0.00 0.00 0.00 88 1009.1
20260901132055 48 228 1.0 1.0 0.00 0.00 0.00 88 1008.8
20260901131554 48 228 0.0 0.0 0.00 0.00 0.00 88 1009.1
20260901131054 48 266 1.0 1.0 0.00 0.00 0.00 88 1009.1
20260901130552 47 276 1.0 1.0 0.00 0.00 0.00 88 1009.1
20260901130050 47 228 0.0 0.0 0.00 0.00 0.00 88 1009.1
20260901125551 47 259 0.0 1.0 0.00 0.00 0.00 87 1009.1
20260901125052 47 237 1.0 2.0 0.00 0.00 0.00 88 1009.1
20260901124556 47 251 1.0 2.0 0.00 0.00 0.00 88 1008.8
20260901124052 48 274 2.0 2.0 0.00 0.00 0.00 88 1009.1
20260901123552 48 264 1.0 1.0 0.00 0.00 0.00 88 1009.1
20260901123052 48 260 0.0 1.0 0.00 0.00 0.00 87 1009.1
20260901122548 48 282 1.0 1.0 0.00 0.00 0.00 86 1009.1
20260901122049 48 289 1.0 1.0 0.00 0.00 0.00 86 1009.1
20260901121548 48 256 2.0 2.0 0.00 0.00 0.00 86 1009.1
20260901121049 48 233 0.0 1.0 0.00 0.00 0.00 85 1009.1
20260901120548 48 253 0.0 1.0 0.00 0.00 0.00 85 1009.1
20260901120047 48 197 0.0 0.0 0.00 0.00 0.00 87 1009.1
20260901115545 48 218 0.0 0.0 0.00 0.00 0.00 88 1009.1
20260901115045 48 192 0.0 0.0 0.00 0.00 0.00 89 1009.1
20260901114546 49 220 0.0 1.0 0.00 0.00 0.00 90 1009.1
20260901114045 49 189 0.0 0.0 0.00 0.00 0.00 90 1009.1
20260901113545 49 189 0.0 0.0 0.00 0.00 0.00 90 1009.1
20260901113044 49 215 0.0 0.0 0.00 0.00 0.00 89 1009.1
20260901112544 49 171 0.0 0.0 0.00 0.00 0.00 88 1009.1
20260901112045 49 231 0.0 0.0 0.00 0.00 0.00 87 1009.1
20260901111542 49 249 1.0 2.0 0.00 0.00 0.00 88 1009.1
20260901111041 49 244 0.0 1.0 0.00 0.00 0.00 89 1009.1
20260901110542 50 231 0.0 1.0 0.00 0.00 0.00 89 1009.1
20260901110045 50 219 0.0 0.0 0.00 0.00 0.00 89 1009.1
20260901105540 50 219 0.0 0.0 0.00 0.00 0.00 89 1009.1
20260901105041 50 234 0.0 0.0 0.00 0.00 0.00 89 1009.1
20260901104540 50 234 0.0 0.0 0.00 0.00 0.00 89 1009.1
20260901104042 50 234 0.0 0.0 0.00 0.00 0.00 88 1009.1
20260901103539 50 234 0.0 0.0 0.00 0.00 0.00 87 1009.1
20260901103042 50 236 0.0 0.0 0.00 0.00 0.00 86 1009.1
20260901102540 50 236 0.0 0.0 0.00 0.00 0.00 86 1009.1
20260901102040 50 260 1.0 1.0 0.00 0.00 0.00 85 1008.8
20260901101539 50 276 1.0 2.0 0.00 0.00 0.00 85 1008.8
20260901101039 50 263 1.0 1.0 0.00 0.00 0.00 86 1008.8
20260901100539 50 272 0.0 0.0 0.00 0.00 0.00 87 1008.8
20260901100039 50 239 0.0 0.0 0.00 0.00 0.00 87 1009.1
20260901095538 50 241 0.0 1.0 0.00 0.00 0.00 87 1009.1
20260901095038 51 286 2.0 2.0 0.00 0.00 0.00 87 1009.1
20260901094537 51 275 1.0 1.0 0.00 0.00 0.00 86 1008.8
20260901094036 51 216 0.0 0.0 0.00 0.00 0.00 87 1008.8
20260901093535 51 207 0.0 0.0 0.00 0.00 0.00 87 1009.1
20260901093036 51 172 0.0 0.0 0.00 0.00 0.00 86 1009.1
20260901092535 51 147 0.0 0.0 0.00 0.00 0.00 85 1009.1
20260901092036 52 205 0.0 0.0 0.00 0.00 0.00 84 1009.1
20260901091535 52 262 1.0 1.0 0.00 0.00 0.00 84 1009.1
20260901091035 52 170 0.0 0.0 0.00 0.00 0.00 84 1009.1
20260901090534 52 241 0.0 0.0 0.00 0.00 0.00 84 1009.1
20260901090035 52 249 0.0 1.0 0.00 0.00 0.00 84 1009.1
20260901085533 52 246 0.0 0.0 0.00 0.00 0.00 83 1009.5
20260901085034 53 248 0.0 0.0 0.00 0.00 0.00 83 1009.1
20260901084532 53 269 2.0 2.0 0.00 0.00 0.00 83 1009.5
20260901084032 53 274 1.0 2.0 0.00 0.00 0.00 83 1009.1
20260901083532 53 277 1.0 2.0 0.00 0.00 0.00 82 1009.5
20260901083032 53 247 0.0 0.0 0.00 0.00 0.00 82 1009.5
20260901082548 53 247 0.0 0.0 0.00 0.00 0.00 81 1009.5
20260901082137 54 247 0.0 0.0 0.00 0.00 0.00 81 1009.5
20260901081631 54 247 0.0 0.0 0.00 0.00 0.00 82 1009.5
20260901081130 54 247 0.0 0.0 0.00 0.00 0.00 81 1009.5
20260901080631 54 247 0.0 0.0 0.00 0.00 0.00 80 1009.5
20260901080133 54 247 0.0 0.0 0.00 0.00 0.00 79 1009.5
20260901075634 54 240 0.0 1.0 0.00 0.00 0.00 78 1009.5
20260901075145 54 250 0.0 0.0 0.00 0.00 0.00 79 1009.8
20260901074628 54 246 0.0 0.0 0.00 0.00 0.00 80 1009.5
20260901074130 54 246 0.0 0.0 0.00 0.00 0.00 81 1009.8
20260901073630 54 247 0.0 0.0 0.00 0.00 0.00 81 1009.5
20260901073132 55 270 1.0 2.0 0.00 0.00 0.00 80 1009.8
20260901072628 55 220 0.0 0.0 0.00 0.00 0.00 79 1009.8
20260901072141 55 210 0.0 0.0 0.00 0.00 0.00 79 1009.8
20260901071731 55 210 0.0 0.0 0.00 0.00 0.00 79 1009.8
20260901071229 55 210 0.0 0.0 0.00 0.00 0.00 78 1009.8
20260901070738 55 210 0.0 0.0 0.00 0.00 0.00 78 1009.8
20260901070227 55 233 0.0 0.0 0.00 0.00 0.00 78 1009.8
20260901065726 55 211 0.0 0.0 0.00 0.00 0.00 77 1010.2
20260901065226 56 194 0.0 0.0 0.00 0.00 0.00 75 1010.2
20260901064726 56 183 0.0 0.0 0.00 0.00 0.00 74 1010.2
20260901064226 56 179 0.0 0.0 0.00 0.00 0.00 74 1010.2
20260901063724 56 190 0.0 0.0 0.00 0.00 0.00 75 1010.2
20260901063225 56 182 0.0 0.0 0.00 0.00 0.00 74 1009.8
20260901062724 57 198 0.0 0.0 0.00 0.00 0.00 76 1010.2
20260901062226 57 203 0.0 0.0 0.00 0.00 0.00 75 1010.2
20260901061725 57 206 0.0 0.0 0.00 0.00 0.00 74 1010.2
20260901061224 57 218 0.0 0.0 0.00 0.00 0.00 74 1010.2
20260901060725 57 208 0.0 0.0 0.00 0.00 0.00 74 1010.2
20260901060239 57 206 0.0 0.0 0.00 0.00 0.00 74 1010.2
20260901055737 57 209 0.0 0.0 0.00 0.00 0.00 73 1010.2
20260901055224 57 203 0.0 0.0 0.00 0.00 0.00 72 1010.2
20260901054724 57 202 0.0 0.0 0.00 0.00 0.00 73 1010.2
20260901054223 57 197 0.0 0.0 0.00 0.00 0.00 74 1010.2
20260901053722 58 197 0.0 0.0 0.00 0.00 0.00 72 1010.5
20260901053223 58 203 0.0 0.0 0.00 0.00 0.00 71 1010.5
20260901052723 58 231 0.0 0.0 0.00 0.00 0.00 71 1010.5
20260901052223 59 206 0.0 0.0 0.00 0.00 0.00 72 1010.5
20260901051724 59 182 0.0 0.0 0.00 0.00 0.00 71 1010.5
20260901051220 59 194 0.0 0.0 0.00 0.00 0.00 70 1010.5
20260901050720 60 193 0.0 0.0 0.00 0.00 0.00 71 1010.5
20260901050241 60 180 0.0 0.0 0.00 0.00 0.00 69 1010.2
20260901045742 60 177 0.0 0.0 0.00 0.00 0.00 68 1010.5
20260901045240 60 174 0.0 0.0 0.00 0.00 0.00 67 1010.5
20260901044820 60 171 0.0 0.0 0.00 0.00 0.00 66 1010.2
20260901044319 61 160 0.0 0.0 0.00 0.00 0.00 66 1010.2
20260901043818 61 172 0.0 0.0 0.00 0.00 0.00 65 1010.5
20260901043318 61 155 0.0 0.0 0.00 0.00 0.00 64 1010.5
20260901042817 62 166 0.0 0.0 0.00 0.00 0.00 64 1010.5
20260901042318 62 175 0.0 0.0 0.00 0.00 0.00 63 1010.5